Location: Foots Cray
(51.4000°N, 0.1167°E)
Time: 23:23:57
(UTC+00:00)

Cosmos 1805 - Pass Details

Date: 15 May 2026
Orbit: 411 x 414 km, 82.5° (Epoch: 6 June)

Event Time Altitude Azimuth Distance (km) Brightness Sun altitude
Rises 21:59:51 0° 341° (NNW) 2,383 8.4 -15.1°
Reaches altitude 10° 22:02:03 10° 330° (NNW) 1,511 7.0 -15.3°
Maximum altitude 22:04:56 29° 268° (W) 793 4.4 -15.5°
Enters shadow 22:06:55 16° 215° (SW) 1,174 4.7 -15.6°
